ACA873 LFPG-CYYZ

Flight info

Callsign ACA873
Flight time N/A
Altitude 34000
Route LGL UN502 JSY DCT LIZAD DCT MOPAT DCT DOGAL/M083F360 NATA ALLRY/N0467F360 DCT QUBIS/N0476F380 DCT POLTY IMEBA9
Aircraft B77W/H-SDE1E2E3FGHIJ2J3J4J5M1RWXY/LB1D1

Departure

Time 2026-04-30 09:28
Airport Charles de Gaulle International Airport (LFPG)

Arrival

Time N/A
Airport Toronto Pearson International Airport (CYYZ)
Time Latitude Longitude Altitude Speed Heading
2026-04-30 08:59 49.00174 2.56657 365 ft 0 kts 12°
2026-04-30 09:16 49.00164 2.56654 359 ft 3 kts
2026-04-30 09:16 49.00144 2.56654 361 ft 3 kts 344°
2026-04-30 09:16 49.00128 2.56666 363 ft 3 kts 310°
2026-04-30 09:17 49.00119 2.56690 368 ft 3 kts 275°
2026-04-30 09:17 49.00118 2.56703 365 ft 0 kts 265°
2026-04-30 09:20 49.00118 2.56700 366 ft 2 kts 265°
2026-04-30 09:21 49.00114 2.56632 365 ft 12 kts 265°
2026-04-30 09:21 49.00106 2.56487 359 ft 14 kts 265°
2026-04-30 09:21 49.00098 2.56343 364 ft 13 kts 265°
2026-04-30 09:21 49.00091 2.56202 365 ft 13 kts 265°
2026-04-30 09:22 49.00084 2.56074 364 ft 12 kts 265°
2026-04-30 09:22 49.00077 2.55948 363 ft 12 kts 265°
2026-04-30 09:22 49.00072 2.55823 365 ft 12 kts 267°
2026-04-30 09:22 49.00068 2.55697 361 ft 12 kts 259°
2026-04-30 09:23 49.00034 2.55583 366 ft 12 kts 234°
2026-04-30 09:23 48.99992 2.55474 366 ft 12 kts 250°
2026-04-30 09:23 48.99979 2.55350 359 ft 12 kts 266°
2026-04-30 09:23 48.99973 2.55226 362 ft 12 kts 266°
2026-04-30 09:24 48.99967 2.55100 359 ft 12 kts 265°
2026-04-30 09:24 48.99923 2.55007 366 ft 12 kts 189°
2026-04-30 09:24 48.99843 2.55038 367 ft 12 kts 161°
2026-04-30 09:24 48.99762 2.55072 364 ft 12 kts 165°
2026-04-30 09:25 48.99679 2.55116 368 ft 13 kts 144°
2026-04-30 09:25 48.99631 2.55226 367 ft 13 kts 116°
2026-04-30 09:25 48.99589 2.55338 364 ft 9 kts 125°
2026-04-30 09:25 48.99577 2.55405 363 ft 0 kts 86°
2026-04-30 09:27 48.99585 2.55561 364 ft 37 kts 85°
2026-04-30 09:27 48.99625 2.56320 367 ft 105 kts 85°
2026-04-30 09:27 48.99700 2.57712 366 ft 159 kts 85°
2026-04-30 09:28 48.99802 2.59516 721 ft 169 kts 85°
2026-04-30 09:28 48.99933 2.61287 1422 ft 172 kts 85°
2026-04-30 09:28 49.00061 2.63124 1976 ft 176 kts 88°
2026-04-30 09:28 49.00144 2.65084 2263 ft 195 kts 89°
2026-04-30 09:29 49.00238 2.67290 2501 ft 222 kts 89°
2026-04-30 09:29 49.00351 2.69714 2989 ft 235 kts 89°
2026-04-30 09:29 49.00470 2.72241 3683 ft 240 kts 88°
2026-04-30 09:29 49.00602 2.74793 4419 ft 245 kts 88°
2026-04-30 09:30 49.00728 2.77397 5156 ft 248 kts 90°
2026-04-30 09:30 49.00607 2.80034 5732 ft 254 kts 100°
2026-04-30 09:30 49.00298 2.82685 6562 ft 252 kts 101°
2026-04-30 09:30 48.99984 2.85334 7242 ft 256 kts 101°
2026-04-30 09:31 48.99682 2.88016 7906 ft 260 kts 100°
2026-04-30 09:31 48.99386 2.90749 8548 ft 264 kts 100°
2026-04-30 09:31 48.99087 2.93545 9187 ft 267 kts 100°
2026-04-30 09:31 48.98776 2.96336 9891 ft 267 kts 105°
2026-04-30 09:32 48.97952 2.98854 10374 ft 273 kts 131°
2026-04-30 09:32 48.96410 3.00689 10546 ft 297 kts 154°
2026-04-30 09:32 48.94346 3.01507 10735 ft 322 kts 174°
2026-04-30 09:32 48.92064 3.01113 10913 ft 350 kts 193°
2026-04-30 09:33 48.89811 2.99424 11237 ft 373 kts 213°
2026-04-30 09:33 48.87955 2.96580 11844 ft 387 kts 232°
2026-04-30 09:33 48.86782 2.92831 12566 ft 399 kts 253°
2026-04-30 09:33 48.86236 2.88651 13365 ft 408 kts 260°
2026-04-30 09:34 48.85876 2.84362 14256 ft 410 kts 261°
2026-04-30 09:34 48.85501 2.80051 15050 ft 414 kts 260°
2026-04-30 09:34 48.85049 2.75707 15800 ft 419 kts 258°
2026-04-30 09:34 48.84520 2.71325 16467 ft 425 kts 257°
2026-04-30 09:35 48.83935 2.66892 17205 ft 429 kts 256°
2026-04-30 09:35 48.83322 2.62443 18024 ft 432 kts 256°
2026-04-30 09:35 48.82695 2.57954 18753 ft 436 kts 256°
2026-04-30 09:35 48.82059 2.53421 19360 ft 442 kts 256°
2026-04-30 09:36 48.81418 2.48833 19965 ft 447 kts 256°
2026-04-30 09:36 48.80771 2.44201 20585 ft 451 kts 256°
2026-04-30 09:36 48.80129 2.39513 21205 ft 456 kts 258°
2026-04-30 09:36 48.79835 2.34693 21738 ft 463 kts 267°
2026-04-30 09:37 48.79838 2.29842 22255 ft 468 kts 270°
2026-04-30 09:37 48.79923 2.24872 22845 ft 473 kts 270°
2026-04-30 09:37 48.80016 2.19862 23449 ft 477 kts 270°
2026-04-30 09:37 48.80088 2.14814 23974 ft 481 kts 269°
2026-04-30 09:38 48.80132 2.09730 24499 ft 483 kts 269°
2026-04-30 09:38 48.80151 2.04613 25021 ft 486 kts 268°
2026-04-30 09:38 48.80154 1.99627 25522 ft 488 kts 268°
2026-04-30 09:38 48.80147 1.94462 25990 ft 491 kts 268°
2026-04-30 09:39 48.80136 1.89262 26455 ft 494 kts 268°
2026-04-30 09:39 48.80121 1.84027 26919 ft 497 kts 268°
2026-04-30 09:39 48.80106 1.78755 27373 ft 500 kts 268°
2026-04-30 09:39 48.80090 1.73535 27815 ft 503 kts 268°
2026-04-30 09:40 48.80073 1.68228 28318 ft 503 kts 268°
2026-04-30 09:40 48.80053 1.62902 28776 ft 505 kts 268°
2026-04-30 09:40 48.80031 1.57556 29156 ft 508 kts 268°
2026-04-30 09:40 48.80006 1.52189 29539 ft 509 kts 268°
2026-04-30 09:41 48.79979 1.46826 30052 ft 508 kts 268°
2026-04-30 09:41 48.79950 1.41480 30582 ft 505 kts 268°
2026-04-30 09:41 48.79919 1.36163 31073 ft 503 kts 268°
2026-04-30 09:41 48.79885 1.30871 31535 ft 501 kts 268°
2026-04-30 09:42 48.79848 1.25626 32249 ft 492 kts 268°
2026-04-30 09:42 48.79810 1.20451 32800 ft 489 kts 268°
2026-04-30 09:42 48.79784 1.17037 33013 ft 490 kts 268°
2026-04-30 09:42 48.79727 1.10158 33371 ft 492 kts 268°
2026-04-30 09:43 48.79681 1.04978 33712 ft 492 kts 268°
2026-04-30 09:43 48.79634 0.99842 34063 ft 491 kts 268°
2026-04-30 09:43 48.79549 0.91208 34136 ft 495 kts 268°
2026-04-30 09:44 48.79440 0.80878 34127 ft 490 kts 268°
2026-04-30 09:44 48.79322 0.70592 34135 ft 486 kts 268°
2026-04-30 09:45 48.79197 0.60359 34127 ft 484 kts 268°
2026-04-30 09:45 48.79364 0.50178 34098 ft 485 kts 281°
2026-04-30 09:46 48.81168 0.40295 34120 ft 488 kts 287°
2026-04-30 09:46 48.83137 0.30425 34121 ft 490 kts 286°
2026-04-30 09:47 48.85280 0.18834 34119 ft 490 kts 285°
2026-04-30 09:47 48.86755 0.10522 34110 ft 490 kts 285°
2026-04-30 09:48 48.88522 0.00504 34122 ft 490 kts 285°
2026-04-30 09:48 48.90257 -0.09341 34114 ft 489 kts 285°
2026-04-30 09:49 48.92012 -0.19336 34115 ft 489 kts 284°
2026-04-30 09:49 48.93749 -0.29338 34115 ft 489 kts 284°
2026-04-30 09:50 48.95435 -0.39363 34115 ft 489 kts 284°
2026-04-30 09:50 48.97107 -0.49400 34097 ft 489 kts 284°
2026-04-30 09:51 48.98775 -0.59437 34112 ft 490 kts 284°
2026-04-30 09:51 49.00442 -0.69501 34110 ft 490 kts 284°
2026-04-30 09:52 49.02097 -0.79559 34089 ft 489 kts 284°
2026-04-30 09:52 49.03735 -0.89572 34112 ft 490 kts 283°
2026-04-30 09:53 49.05376 -0.99662 34089 ft 490 kts 283°
2026-04-30 09:53 49.06986 -1.09620 34079 ft 491 kts 283°
2026-04-30 09:54 49.08613 -1.19733 34108 ft 491 kts 283°
2026-04-30 09:54 49.10253 -1.29853 34104 ft 490 kts 283°
2026-04-30 09:55 49.11884 -1.39918 34087 ft 490 kts 283°
2026-04-30 09:55 49.13511 -1.50035 34092 ft 490 kts 283°
2026-04-30 09:56 49.15128 -1.60169 34101 ft 491 kts 283°
2026-04-30 09:56 49.16735 -1.70306 34098 ft 491 kts 283°
2026-04-30 09:57 49.18328 -1.80413 34102 ft 492 kts 282°
2026-04-30 09:57 49.19922 -1.90590 34073 ft 493 kts 282°
2026-04-30 09:58 49.21490 -2.00657 34062 ft 494 kts 281°
2026-04-30 09:58 49.23125 -2.10882 34100 ft 495 kts 283°
2026-04-30 09:59 49.26660 -2.31259 34093 ft 496 kts 282°
2026-04-30 10:00 49.29272 -2.46613 34092 ft 496 kts 282°
2026-04-30 10:01 49.31849 -2.61986 34080 ft 497 kts 282°
2026-04-30 10:02 49.34398 -2.77319 34081 ft 497 kts 282°
2026-04-30 10:02 49.36097 -2.87608 34086 ft 497 kts 281°
2026-04-30 10:03 49.37787 -2.97910 34085 ft 498 kts 281°
2026-04-30 10:03 49.39441 -3.08054 34088 ft 497 kts 281°
2026-04-30 10:04 49.41113 -3.18372 34097 ft 498 kts 281°
2026-04-30 10:04 49.42775 -3.28687 34086 ft 497 kts 281°
2026-04-30 10:05 49.44428 -3.39013 34084 ft 497 kts 281°
2026-04-30 10:05 49.46069 -3.49331 34082 ft 496 kts 281°
2026-04-30 10:06 49.47699 -3.59639 34095 ft 496 kts 281°
2026-04-30 10:06 49.49305 -3.69868 34082 ft 495 kts 281°
2026-04-30 10:07 49.50915 -3.80182 34075 ft 495 kts 280°
2026-04-30 10:07 49.52515 -3.90495 34070 ft 495 kts 280°
2026-04-30 10:08 49.54076 -4.00623 34076 ft 495 kts 280°
2026-04-30 10:08 49.55656 -4.10943 34085 ft 495 kts 280°
2026-04-30 10:09 49.57230 -4.21277 34072 ft 495 kts 280°
2026-04-30 10:09 49.59402 -4.31330 34076 ft 500 kts 297°
2026-04-30 10:10 49.63675 -4.39838 34048 ft 505 kts 317°
2026-04-30 10:10 49.68939 -4.46939 34071 ft 506 kts 319°
2026-04-30 10:11 49.74284 -4.54083 34078 ft 509 kts 318°
2026-04-30 10:11 49.79610 -4.61351 34082 ft 511 kts 317°
2026-04-30 10:12 49.84920 -4.68705 34072 ft 512 kts 317°
2026-04-30 10:12 49.90223 -4.76091 34065 ft 513 kts 317°
2026-04-30 10:13 49.95493 -4.83446 34070 ft 512 kts 317°
2026-04-30 10:13 50.00786 -4.90849 34064 ft 512 kts 317°
2026-04-30 10:14 50.06075 -4.98269 34056 ft 511 kts 317°
2026-04-30 10:14 50.13902 -5.09293 34064 ft 511 kts 317°
2026-04-30 10:15 50.19180 -5.16754 34044 ft 512 kts 317°
2026-04-30 10:15 50.24461 -5.24245 34043 ft 513 kts 317°
2026-04-30 10:16 50.29737 -5.31751 34042 ft 513 kts 317°
2026-04-30 10:17 50.37622 -5.43011 34058 ft 513 kts 317°
2026-04-30 10:17 50.45541 -5.54375 34040 ft 514 kts 317°
2026-04-30 10:18 50.50816 -5.61975 34056 ft 516 kts 316°
2026-04-30 10:19 50.58761 -5.73467 34050 ft 518 kts 316°
2026-04-30 10:19 50.64069 -5.81175 34053 ft 519 kts 316°
2026-04-30 10:20 50.69342 -5.88858 34058 ft 519 kts 316°
2026-04-30 10:20 50.77209 -6.00364 34066 ft 519 kts 316°
2026-04-30 10:21 50.82504 -6.08141 34070 ft 519 kts 316°
2026-04-30 10:21 50.87790 -6.15931 34077 ft 520 kts 316°
2026-04-30 10:22 50.93077 -6.23746 34073 ft 520 kts 316°
2026-04-30 10:22 50.98361 -6.31583 34071 ft 520 kts 316°
2026-04-30 10:23 51.03627 -6.39419 34066 ft 520 kts 316°
2026-04-30 10:23 51.08878 -6.47256 34069 ft 520 kts 316°
2026-04-30 10:24 51.14145 -6.55145 34072 ft 520 kts 315°
2026-04-30 10:24 51.19411 -6.63059 34068 ft 521 kts 315°
2026-04-30 10:25 51.24687 -6.71014 34079 ft 521 kts 315°
2026-04-30 10:25 51.29947 -6.78970 34070 ft 521 kts 315°
2026-04-30 10:26 51.35211 -6.86959 34075 ft 521 kts 315°
2026-04-30 10:26 51.40436 -6.94917 34066 ft 521 kts 315°
2026-04-30 10:27 51.45611 -7.02822 34074 ft 522 kts 315°
2026-04-30 10:27 51.50483 -7.11402 34084 ft 519 kts 305°
2026-04-30 10:28 51.54363 -7.21128 34079 ft 517 kts 297°
2026-04-30 10:28 51.57964 -7.31145 34083 ft 518 kts 297°
2026-04-30 10:29 51.60970 -7.39504 34078 ft 520 kts 297°
2026-04-30 10:29 51.64620 -7.49576 34067 ft 522 kts 297°
2026-04-30 10:30 51.68286 -7.59664 34066 ft 521 kts 297°
2026-04-30 10:30 51.71947 -7.69770 34072 ft 520 kts 297°
2026-04-30 10:31 51.75586 -7.79863 34101 ft 520 kts 297°
2026-04-30 10:31 51.79196 -7.89923 34080 ft 521 kts 297°
2026-04-30 10:32 51.82813 -8.00045 34078 ft 521 kts 297°
2026-04-30 10:32 51.86393 -8.10101 34079 ft 522 kts 297°
2026-04-30 10:33 51.90008 -8.20295 34074 ft 522 kts 297°
2026-04-30 10:33 51.93614 -8.30510 34078 ft 523 kts 297°
2026-04-30 10:34 51.97223 -8.40771 34063 ft 525 kts 296°
2026-04-30 10:34 52.00829 -8.51066 34064 ft 524 kts 297°
2026-04-30 10:35 52.04402 -8.61307 34083 ft 523 kts 297°
2026-04-30 10:35 52.07988 -8.71630 34084 ft 524 kts 297°
2026-04-30 10:36 52.11565 -8.81969 34055 ft 524 kts 296°
2026-04-30 10:36 52.15111 -8.92256 34083 ft 522 kts 296°
2026-04-30 10:37 52.18521 -9.02193 34053 ft 522 kts 296°
2026-04-30 10:37 52.22050 -9.12523 34073 ft 521 kts 296°
2026-04-30 10:38 52.25572 -9.22870 34057 ft 522 kts 296°
2026-04-30 10:38 52.29089 -9.33249 34050 ft 523 kts 296°
2026-04-30 10:39 52.32601 -9.43653 34063 ft 522 kts 296°
2026-04-30 10:39 52.36107 -9.54086 34080 ft 524 kts 296°
2026-04-30 10:40 52.39588 -9.64485 34062 ft 524 kts 295°
2026-04-30 10:40 52.43081 -9.74965 34071 ft 524 kts 295°
2026-04-30 10:41 52.46577 -9.85497 34054 ft 525 kts 295°
2026-04-30 10:41 52.50063 -9.96048 34064 ft 525 kts 295°
2026-04-30 10:42 52.53427 -10.06271 34081 ft 526 kts 295°
2026-04-30 10:42 52.56877 -10.16800 34065 ft 526 kts 295°
2026-04-30 10:43 52.60340 -10.27410 34053 ft 526 kts 295°
2026-04-30 10:43 52.63781 -10.38002 34063 ft 525 kts 295°
2026-04-30 10:44 52.67220 -10.48632 34062 ft 525 kts 295°
2026-04-30 10:44 52.70651 -10.59284 34069 ft 525 kts 295°
2026-04-30 10:45 52.73839 -10.69227 34069 ft 525 kts 295°
2026-04-30 10:45 52.73856 -10.69281 34069 ft 525 kts 295°
2026-04-30 11:05 52.73864 -10.69306 34069 ft 525 kts 295°